Powrót do katalogu

STARLINK-34377

AktywnyŁącznośćVLEO
NORAD 64279·PAYLOAD·🇺🇸 United States

Wystrzelony Jun 4, 2025 z Vandenberg Space Force Base

Loading…

Następne Przeloty (najbliższe 24 godziny)

TLE

ŚwieżeSource: CelesTrak SupGP

Epoka: Sep 14, 2026, 21:11 UTC

1 64279C 25120Z   26257.88312500 -.00006808  00000+0 -20121-3 0  2576
2 64279  53.1595 312.2350 0001011  74.7937 239.8913 15.34382279    14

Śledź STARLINK-34377 w czasie rzeczywistym z AllMySat

Download on the App Store